NOZ2MA ENGM-LPMA

Flight info

Callsign NOZ2MA
Flight time N/A
Altitude 36000
Route VIPPA DCT DANKO DCT TINAC DCT ROPAL DCT RODSI DCT BUZDE P5 DIGSU N866 GASGU/N0444F370 N866 SAM M195 LORKU DCT EBOMO DCT KORUL DCT DEMOS DCT XANEL DCT TELMU DCT LIDRO
Aircraft B738/M-SDE2E3FGHIRWXY/LB1

Departure

Time 2026-05-05 17:23
Airport Oslo-Gardermoen International Airport (ENGM)

Arrival

Time N/A
Airport Cristiano Ronaldo International Airport (LPMA)
Time Latitude Longitude Altitude Speed Heading
2026-05-05 16:50 60.19553 11.09910 682 ft 0 kts 106°
2026-05-05 17:08 60.19553 11.09909 684 ft 1 kts 106°
2026-05-05 17:09 60.19557 11.09881 676 ft 3 kts 106°
2026-05-05 17:09 60.19562 11.09843 681 ft 3 kts 106°
2026-05-05 17:09 60.19568 11.09803 679 ft 3 kts 106°
2026-05-05 17:09 60.19571 11.09784 681 ft 0 kts 106°
2026-05-05 17:14 60.19572 11.09790 680 ft 1 kts 76°
2026-05-05 17:14 60.19589 11.09809 681 ft 4 kts
2026-05-05 17:14 60.19625 11.09801 684 ft 7 kts 345°
2026-05-05 17:14 60.19682 11.09749 683 ft 11 kts 334°
2026-05-05 17:15 60.19724 11.09625 678 ft 11 kts 284°
2026-05-05 17:15 60.19745 11.09472 682 ft 11 kts 285°
2026-05-05 17:15 60.19765 11.09324 682 ft 11 kts 285°
2026-05-05 17:15 60.19785 11.09180 679 ft 10 kts 285°
2026-05-05 17:16 60.19804 11.09040 681 ft 10 kts 285°
2026-05-05 17:16 60.19824 11.08885 675 ft 13 kts 284°
2026-05-05 17:16 60.19851 11.08718 678 ft 13 kts 289°
2026-05-05 17:16 60.19857 11.08561 677 ft 11 kts 229°
2026-05-05 17:17 60.19786 11.08507 677 ft 11 kts 193°
2026-05-05 17:17 60.19710 11.08465 677 ft 12 kts 196°
2026-05-05 17:17 60.19618 11.08411 677 ft 16 kts 195°
2026-05-05 17:17 60.19501 11.08345 676 ft 19 kts 196°
2026-05-05 17:18 60.19369 11.08269 674 ft 20 kts 195°
2026-05-05 17:18 60.19230 11.08190 672 ft 21 kts 196°
2026-05-05 17:18 60.19098 11.08110 669 ft 21 kts 197°
2026-05-05 17:18 60.18957 11.08030 671 ft 21 kts 195°
2026-05-05 17:19 60.18819 11.07951 670 ft 20 kts 196°
2026-05-05 17:19 60.18686 11.07871 667 ft 20 kts 196°
2026-05-05 17:19 60.18564 11.07772 663 ft 19 kts 240°
2026-05-05 17:19 60.18567 11.07672 664 ft 0 kts 285°
2026-05-05 17:20 60.18573 11.07629 663 ft 7 kts 285°
2026-05-05 17:20 60.18606 11.07496 665 ft 15 kts 317°
2026-05-05 17:21 60.18675 11.07474 666 ft 0 kts 15°
2026-05-05 17:22 60.18684 11.07479 666 ft 8 kts 15°
2026-05-05 17:22 60.18991 11.07656 668 ft 86 kts 15°
2026-05-05 17:22 60.19798 11.08121 671 ft 155 kts 14°
2026-05-05 17:22 60.21021 11.08527 1032 ft 186 kts
2026-05-05 17:23 60.22291 11.08943 2189 ft 184 kts
2026-05-05 17:23 60.23572 11.09318 2935 ft 193 kts
2026-05-05 17:23 60.24934 11.09757 3429 ft 201 kts
2026-05-05 17:23 60.26364 11.10266 3898 ft 215 kts
2026-05-05 17:24 60.27880 11.10799 4354 ft 224 kts
2026-05-05 17:24 60.29449 11.10588 4802 ft 229 kts 334°
2026-05-05 17:24 60.30671 11.08573 5317 ft 234 kts 304°
2026-05-05 17:24 60.31272 11.05411 5727 ft 252 kts 276°
2026-05-05 17:25 60.31010 11.01926 6523 ft 257 kts 248°
2026-05-05 17:25 60.30473 10.99756 6891 ft 259 kts 250°
2026-05-05 17:25 60.30415 10.95131 7978 ft 255 kts 288°
2026-05-05 17:25 60.30964 10.91670 8729 ft 260 kts 286°
2026-05-05 17:26 60.31457 10.88130 9570 ft 262 kts 284°
2026-05-05 17:26 60.31931 10.84574 10312 ft 267 kts 279°
2026-05-05 17:26 60.31751 10.80708 10519 ft 293 kts 248°
2026-05-05 17:26 60.30470 10.77319 10700 ft 321 kts 220°
2026-05-05 17:27 60.28534 10.74831 11175 ft 334 kts 213°
2026-05-05 17:27 60.26523 10.72385 11836 ft 339 kts 213°
2026-05-05 17:27 60.24520 10.69942 12643 ft 341 kts 214°
2026-05-05 17:27 60.22487 10.67431 13366 ft 345 kts 215°
2026-05-05 17:28 60.20436 10.64877 14046 ft 348 kts 215°
2026-05-05 17:28 60.18371 10.62302 14810 ft 348 kts 216°
2026-05-05 17:28 60.16285 10.59925 15542 ft 353 kts 207°
2026-05-05 17:28 60.13853 10.58750 16238 ft 363 kts 195°
2026-05-05 17:29 60.11351 10.57936 16903 ft 365 kts 195°
2026-05-05 17:29 60.08827 10.57107 17526 ft 369 kts 196°
2026-05-05 17:29 60.06275 10.56254 18146 ft 372 kts 197°
2026-05-05 17:29 60.03714 10.55385 18677 ft 374 kts 198°
2026-05-05 17:30 60.01178 10.54508 19252 ft 374 kts 199°
2026-05-05 17:30 59.98605 10.53618 19805 ft 377 kts 199°
2026-05-05 17:30 59.96009 10.52723 20362 ft 379 kts 200°
2026-05-05 17:30 59.93399 10.51820 20913 ft 382 kts 200°
2026-05-05 17:31 59.90773 10.50912 21457 ft 384 kts 201°
2026-05-05 17:31 59.88164 10.50011 21997 ft 386 kts 201°
2026-05-05 17:31 59.85508 10.49094 22511 ft 388 kts 202°
2026-05-05 17:31 59.82836 10.48171 23007 ft 391 kts 202°
2026-05-05 17:32 59.80150 10.47247 23486 ft 393 kts 202°
2026-05-05 17:32 59.77439 10.46315 23851 ft 396 kts 202°
2026-05-05 17:32 59.74720 10.45384 24188 ft 397 kts 201°
2026-05-05 17:32 59.71973 10.44444 24529 ft 401 kts 201°
2026-05-05 17:33 59.69183 10.43603 24799 ft 409 kts 196°
2026-05-05 17:33 59.66389 10.42988 25275 ft 399 kts 204°
2026-05-05 17:33 59.63728 10.41657 25545 ft 401 kts 205°
2026-05-05 17:33 59.60969 10.40516 25832 ft 410 kts 201°
2026-05-05 17:34 59.58132 10.39590 26195 ft 413 kts 200°
2026-05-05 17:34 59.55286 10.38679 26542 ft 414 kts 201°
2026-05-05 17:34 59.52448 10.37662 26780 ft 418 kts 200°
2026-05-05 17:34 59.49570 10.36736 27177 ft 419 kts 200°
2026-05-05 17:35 59.46678 10.35811 27452 ft 420 kts 199°
2026-05-05 17:35 59.43785 10.34870 27772 ft 422 kts 200°
2026-05-05 17:35 59.40884 10.33912 28094 ft 423 kts 200°
2026-05-05 17:35 59.38003 10.32951 28415 ft 425 kts 200°
2026-05-05 17:36 59.35087 10.31974 28711 ft 427 kts 200°
2026-05-05 17:36 59.32136 10.30986 29007 ft 429 kts 200°
2026-05-05 17:36 59.29184 10.30001 29309 ft 430 kts 199°
2026-05-05 17:36 59.26220 10.29016 29704 ft 430 kts 199°
2026-05-05 17:37 59.23276 10.28040 30165 ft 427 kts 199°
2026-05-05 17:37 59.21340 10.27399 30424 ft 426 kts 199°
2026-05-05 17:37 59.17465 10.26115 30754 ft 425 kts 199°
2026-05-05 17:37 59.14507 10.25346 31011 ft 432 kts 194°
2026-05-05 17:38 59.11537 10.24953 31327 ft 434 kts 192°
2026-05-05 17:38 59.08512 10.24667 31689 ft 433 kts 192°
2026-05-05 17:38 59.05497 10.24366 31983 ft 432 kts 193°
2026-05-05 17:38 59.02500 10.24006 32259 ft 431 kts 193°
2026-05-05 17:39 58.99504 10.23609 32571 ft 430 kts 193°
2026-05-05 17:39 58.96549 10.23002 32847 ft 420 kts 203°
2026-05-05 17:39 58.93901 10.20951 33046 ft 402 kts 217°
2026-05-05 17:39 58.91668 10.17933 33284 ft 390 kts 229°
2026-05-05 17:40 58.89727 10.14285 33489 ft 389 kts 231°
2026-05-05 17:40 58.87824 10.10519 33652 ft 391 kts 232°
2026-05-05 17:40 58.85939 10.06746 33949 ft 389 kts 232°
2026-05-05 17:40 58.84055 10.02988 34192 ft 389 kts 231°
2026-05-05 17:41 58.82158 9.99225 34326 ft 391 kts 231°
2026-05-05 17:41 58.80254 9.95477 34473 ft 392 kts 231°
2026-05-05 17:41 58.78335 9.91722 34663 ft 392 kts 231°
2026-05-05 17:41 58.76437 9.88028 34841 ft 393 kts 231°